STARLINK-37568, 69492

Orbit data source: Space-Track

STARLINK-37568, 69492 is a payload satellite owned by SpaceX/Seattle (US) in SSO that was launched on Thu, 11 Jun 2026 UTC via an FALCON 9 launch vehicle from the Air Force Western Test Range (AFWTR). Payload-class satellites include a variety of spacecraft equipped with specific instruments for various scientific and technological missions. These include communications satellites like Starlink; space stations such as the ISS; scientific satellites like the Hubble; Earth observation satellites from companies like Planet Labs, Umbra, and HawkEye 360; GPS; miniature CubeSats for education and research; and military/defense satellites.

Loading next visibility...
Identifier
69492, 2026-131Q
Orbit
SSO
Country
Flag of USUS
Related business
Manufacturer
SpaceX/Seattle
Mission
Operational spacecraft
Bus & Motor
STARLINK V2MO, Unknown motor
Mass
575 kg wet, ~530 kg dry
Launch date (UTC)
2026-06-11 (1 week ago)
Launch vehicle
FALCON 9
Launch site
Air Force Western Test Range (AFWTR)
Object type
Payload
Rocket body
Debris
Shape & HBR
Unknown
Radar Cross Section
RCS unknown

Expand to show TLE details & history
Last TLE update: 10 hours ago

TLE from 10 hours ago
0 STARLINK-37568
1 69492U 26131Q   26171.41668980 -.01124021  37391-3 -34264-2 0  9992
2 69492  97.2833 191.8659 0000986  90.6170 233.8292 15.92003569  2628
Epoch: 2026-06-20T10:00Z
TLE epoch observation values (Epoch: 2026-06-20T10:00:01.998Z)
Latitude
-35.5148°
Longitude
138.42974°
Altitude
310.661 km
Speed
7.72 km/s
True Right ascension
13h 08m 16s
True Declination
-35° 20' 29"
Sunlit
Object was in full shadow at epoch
Visualization orbit readout
Latitude
Unknown
Longitude
Unknown
Altitude
Unknown
Speed
Unknown
Apparent Right ascension
Unknown
Apparent Declination
Unknown
Sunlit
N/A
Visualization observer readout
Local Sidereal Time
07:16:25
Azimuth
Unknown
Elevation
Unknown
Doppler factor
Unknown
Orbital elements
Apogee altitude
294.2 km
Perigee altitude
292.884 km
Semi-major axis
6,671.679 km
Eccentricity
0.0001
Inclination
97.2833°
RAAN
191.8659°
Arg. of periapsis
90.617°
True anomaly
233.82008°
Mean anomaly
233.8292°
Eccentric anomaly
233.82464°
Mean motion
3.98282 °/min
Orbital period
90.39 mins
BSTAR
-0.0034264
Loading maneuver chart data...
Computing Atmospheric mass density...
Loading historical data...
Loading historical data...
Loading historical data...
Loading historical data...
Loading historical data...
Loading historical data...
Loading historical data...

Documentation

Showing up to 5 results
|